Location: Newark
(48.8833°N, 0.9236°W)
Time: 19:20:52
(UTC+00:00)

Tiros 1 despin weight - Pass Details

Date: 25 November 2019
Orbit: 594 x 642 km, 48.2° (Epoch: 10 December)

Event Time Altitude Azimuth Distance (km) Brightness Sun altitude
Rises 15:52:17 0° 282° (WNW) 2,835 ? 2.1°
Reaches altitude 10° 15:54:39 10° 276° (W) 1,934 ? 1.8°
Maximum altitude 15:58:49 41° 206° (SSW) 874 ? 1.2°
Drops below altitude 10° 16:03:01 10° 136° (SE) 1,948 ? 0.6°
Sets 16:05:24 0° 129° (SE) 2,857 ? 0.3°
